Location: Montbazon
(47.2835°N, 0.6999°E)
Time: 17:54:04
(UTC+00:00)

NOSS 3-1 (A) - Pass Details

Date: 08 November 2025
Orbit: 621 x 1586 km, 63.4° (Epoch: 02 December)

Event Time Altitude Azimuth Distance (km) Brightness Sun altitude
Exits shadow 05:07:16 - 209° (SSW) 2,472 5.4 -17.8°
Reaches altitude 10° 05:08:17 10° 208° (SSW) 2,072 5.0 -17.6°
Maximum altitude 05:12:52 69° 125° (SE) 784 3.2 -16.8°
Drops below altitude 10° 05:18:26 10° 43° (NE) 2,499 6.1 -15.9°
Sets 05:21:14 0° 42° (NE) 3,590 7.0 -15.4°
